Location: McDonald Observatory
(30.6717°N, 104.0221°W)
Time: 22:44:23
(UTC-05:00)

Daily predictions for brighter satellites

Satellite Brightness Start Highest point End
(mag) Time Altitude Azimuth Time Altitude Azimuth Time Altitude Azimuth
Cosmos 968 Rocket 3.8 20:40:36 10° NNW 20:45:42 73° WSW 20:50:46 10° S
Cosmos 1975 4.2 20:43:30 10° SE 20:46:30 20° E 20:49:30 10° NE
Lacrosse 5 rocket 2.9 20:52:52 10° N 20:55:23 17° NE 20:57:52 10° E
FENGYUN 3A 4.4 20:52:00 10° SE 20:56:42 32° ENE 21:01:25 10° N
Cosmos 1656 3.9 20:52:28 10° S 20:57:51 48° ESE 21:03:12 10° NNE
Delta 2 Rocket 4.2 20:53:07 10° WNW 20:58:55 75° NNE 21:03:59 12° ESE
Cosmos 1544 Rocket 3.7 20:55:57 10° S 21:00:18 79° W 21:04:44 10° N
SJ-6B 4.0 20:56:46 10° S 21:00:20 44° W 21:03:55 10° NNW
CZ-2D R/B 4.4 20:58:05 10° SE 21:01:19 26° ENE 21:04:33 10° NNE
Meteor 1-23 Rocket 4.3 20:57:17 10° N 21:02:59 87° E 21:08:44 10° S
Cosmos 1934 Rocket 4.0 20:57:04 10° S 21:03:10 84° E 21:09:24 10° N
Helios 1B rocket 3.6 21:00:28 10° N 21:04:26 49° WNW 21:08:23 10° SSW
Resurs 01 Rocket 1.6 21:00:26 10° SSE 21:04:51 89° WSW 21:09:19 10° NNW
Okean 2 3.3 21:02:23 10° N 21:06:33 69° E 21:10:38 10° SSE
Hubble Space Telescope 2.1 21:03:32 10° W 21:07:11 30° SSW 21:10:37 11° SE
Cosmos 1500 4.5 21:04:50 10° SE 21:07:38 20° E 21:10:28 10° NE
HJ-1C 3.7 21:05:20 10° S 21:08:35 68° W 21:11:52 10° NNW
FengYun 1-2 T 4.2 21:05:39 10° SSE 21:11:15 71° ENE 21:16:50 10° N
Cosmos 2227 Rocket 2.4 21:07:41 10° N 21:13:12 53° ENE 21:18:41 10° SE
Meteor 1-12 Rocket 4.3 21:10:08 10° S 21:15:44 62° E 21:21:28 10° NNE
Cosmos 468 Rocket 4.2 21:13:14 10° S 21:18:06 46° ESE 21:22:59 10° NNE
OAO 2 Rocket 3.9 21:13:24 10° W 21:18:17 53° N 21:22:50 12° ENE
ALOS 2.2 21:19:38 10° SSE 21:24:15 65° ENE 21:28:52 10° N
USA 186 2.2 21:23:39 25° ESE 21:24:51 36° ENE 21:27:36 10° N
Helios 1A 4.2 21:23:57 10° S 21:27:55 43° W 21:31:55 10° NNW
Cosmos 2297 Rocket 2.4 21:22:48 10° N 21:28:17 50° ENE 21:32:06 19° SE
Cosmos 1346 Rocket 3.0 21:24:45 10° NNW 21:28:43 74° W 21:32:42 10° S
OTV 4 0.8 21:26:06 10° WNW 21:29:00 53° NNE 21:30:00 33° E
Cosmos 2082 3.6 21:23:33 10° NNW 21:29:09 69° ENE 21:33:58 14° SSE
Cosmos 1814 Rocket 4.2 21:24:34 10° S 21:29:43 51° ESE 21:34:52 10° NNE
Cosmos 1515 4.2 21:33:24 10° NNE 21:36:58 37° E 21:37:39 34° ESE
Cosmos 1461 2.9 21:38:09 10° NNW 21:42:07 70° WSW 21:44:18 25° SSE
CZ-4B DEB 4.0 21:40:34 10° S 21:43:39 42° W 21:46:48 10° NNW
Cosmos 1743 3.6 21:48:12 32° ENE 21:48:12 32° ENE 21:51:02 10° NNE
NOSS 3-4 (A) 4.2 21:41:20 10° NW 21:48:27 66° WSW 21:55:23 12° SSE
Cosmos 2173 Rocket 4.2 21:42:29 10° SSE 21:48:34 50° E 21:54:39 10° NNE
NOSS 3-4 (C) 4.2 21:41:28 10° NW 21:48:35 67° WSW 21:55:27 13° SSE
Tiangong 1 3.8 21:49:00 10° N 21:50:02 11° NNE 21:50:47 11° NNE
RESURS DK-1 3.7 21:52:41 10° N 21:55:34 25° NE 21:55:34 25° NE
H-2A R/B 4.0 21:57:54 15° NE 21:57:54 15° NE 21:59:13 10° NNE
Cosmos 1697 Rocket 3.1 21:52:17 10° SSW 21:57:53 65° WNW 22:03:29 10° NNE
YAOGAN 11 4.2 22:01:48 53° ESE 22:02:17 56° ENE 22:06:40 10° N
Envisat 3.5 22:03:38 39° ENE 22:03:45 39° ENE 22:08:27 10° N
Cosmos 2100 Rocket 3.9 21:57:39 10° S 22:03:55 76° E 22:10:10 10° N
Cosmos 1626 Rocket 4.0 22:00:47 10° NNW 22:05:06 60° W 22:07:44 22° SSW
Cosmos 1066 Rocket 4.2 21:59:53 10° N 22:05:35 68° E 22:07:44 39° SSE
Iridium 4 Rocket 3.3 22:01:35 10° N 22:06:24 74° W 22:08:57 25° S
Cosmos 2084 3.5 22:05:50 10° NNW 22:09:46 59° NE 22:09:46 59° NE
Cosmos 2298 Rocket 3.9 22:05:36 10° NNW 22:10:56 84° ENE 22:12:23 49° SSE
Cosmos 1937 Rocket 3.6 22:06:51 10° N 22:12:01 52° ENE 22:12:16 52° E
Nimbus 7 Rocket 4.5 22:07:05 10° NNE 22:13:01 54° ESE 22:14:14 46° SE
H-2A R/B 4.4 22:10:23 15° SSW 22:13:01 33° W 22:16:35 10° NNW
Cosmos 2061 Rocket 3.9 22:08:00 10° S 22:14:19 84° E 22:20:36 10° N
Cosmos 1980 Rocket 2.4 22:15:48 10° SSW 22:21:25 69° WNW 22:27:06 10° NNE
Cosmos 990 Rocket 4.5 22:17:42 10° N 22:22:04 44° NE 22:22:04 44° NE
Lacrosse 5 2.4 22:19:35 10° NNW 22:24:06 44° NE 22:24:06 44° NE
SPOT 5 4.0 22:28:38 32° NNE 22:28:38 32° NNE 22:31:38 10° N
ERS-1 Rocket 2.9 22:28:22 75° SSW 22:28:47 83° WSW 22:33:49 10° NNW
Cosmos 1459 Rocket 4.2 22:26:59 10° SSW 22:32:56 64° W 22:39:00 10° N
Lacrosse 5 rocket 3.0 22:31:25 10° WNW 22:33:43 26° W 22:33:43 26° W
CZ-3C R/B 3.4 22:02:16 10° W 22:36:06 44° SSW 22:38:31 37° S
Cosmos 2150 Rocket 4.2 22:31:26 10° NNW 22:36:31 62° WSW 22:37:01 58° SW
Cosmos 1725 Rocket 4.3 22:37:55 51° NE 22:37:55 51° NE 22:42:52 10° NNE
Cosmos 1763 Rocket 4.1 22:37:10 10° SSW 22:42:09 52° WNW 22:47:06 10° N
Cosmos 2098 Rocket 4.0 22:41:42 73° SE 22:42:13 77° E 22:48:20 10° N
Cosmos 2263 Rocket 4.4 22:49:58 10° NNE 22:50:51 12° NNE 22:50:51 12° NNE
Cosmos 2322 Rocket 3.9 22:58:39 22° NNE 22:58:39 22° NNE 23:00:31 10° NNE
DELTA 2 R/B (1) 4.0 22:49:23 10° WNW 22:53:52 59° WNW 22:53:52 59° WNW
Milstar 3 Cent rocket 3.8 22:48:34 10° W 23:08:51 72° SSW 23:10:48 63° SSE
SL-16 R/B 4.3 23:54:57 21° NNW 23:54:57 21° NNW 23:57:16 10° N
